Location: ????????
(56.1167°N, 38.6333°E)
Time: 20:28:08
(UTC+00:00)

SL-08 R/B - Pass Details

Date: 18 November 2025
Orbit: 943 x 1007 km, 83.0° (Epoch: 14 December)

Event Time Altitude Azimuth Distance (km) Brightness Sun altitude
Rises 14:19:11 0° 183° (S) 3,607 7.8 -9.1°
Reaches altitude 10° 14:21:40 10° 181° (S) 2,662 7.1 -9.4°
Maximum altitude 14:27:43 76° 98° (E) 978 4.4 -10.2°
Drops below altitude 10° 14:33:49 10° 14° (NNE) 2,679 6.5 -11.0°
Sets 14:36:19 0° 13° (NNE) 3,633 7.2 -11.3°
